Location: Lombard
(41.8800°N, 88.0080°W)
Time: 21:34:29
(UTC-06:00)

ISS - Visible Passes

Search period start: 07 December 2025 00:00
Search period end: 17 December 2025 00:00
Orbit: 416 x 421 km, 51.6° (Epoch: 07 December)

Date Brightness Start Highest point End Pass type
(mag) Time Alt. Az. Time Alt. Az. Time Alt. Az.
11 Dec -1.2 06:23:16 10° SSW 06:26:06 25° SE 06:28:57 10° ENE visible
12 Dec -0.6 05:36:18 10° S 05:38:21 15° SE 05:40:24 10° E visible
13 Dec -3.5 06:23:27 10° SW 06:26:49 74° SE 06:30:11 10° ENE visible
14 Dec -2.5 05:35:42 10° SSW 05:38:53 42° SE 05:42:06 10° ENE visible
15 Dec -1.7 04:50:51 25° SE 04:51:00 25° SE 04:53:49 10° ENE visible
15 Dec -3.3 06:24:24 10° WSW 06:27:38 43° NNW 06:30:54 10° NE visible
16 Dec -3.9 05:38:39 44° W 05:39:33 69° NNW 05:42:55 10° NE visible
